Location: Artiguedieu
(43.5000°N, 0.5454°E)
Time: 22:51:56
(UTC+00:00)

HuskySat-1 - Pass Details

Date: 26 September 2021
Orbit: 446 x 459 km, 51.6° (Epoch: 18 October)

Event Time Altitude Azimuth Distance (km) Brightness Sun altitude
Rises 20:09:14 0° 233° (SW) 2,452 ? -25.8°
Reaches altitude 10° 20:11:21 10° 233° (SW) 1,585 ? -26.2°
Enters shadow 20:11:55 14° 232° (SW) 1,357 ? -26.3°
